TimeCST,TemperatureF,Dew PointF,Humidity,Sea Level PressureIn,VisibilityMPH,Wind Direction,Wind SpeedMPH,Gust SpeedMPH,PrecipitationIn,Events,Conditions,WindDirDegrees,DateUTC
12:15 AM,27.1,26.1,96,30.38,10.0,Calm,Calm,-,N/A,,Clear,0,2013-01-05 06:15:00
12:35 AM,27.1,26.4,97,30.38,7.0,Calm,Calm,-,N/A,,Clear,0,2013-01-05 06:35:00
12:55 AM,26.1,25.3,97,30.38,7.0,Calm,Calm,-,N/A,,Clear,0,2013-01-05 06:55:00
1:15 AM,26.1,25.2,96,30.38,10.0,Calm,Calm,-,N/A,,Clear,0,2013-01-05 07:15:00
1:35 AM,25.5,24.8,97,30.38,10.0,Calm,Calm,-,N/A,,Clear,0,2013-01-05 07:35:00
1:55 AM,26.4,25.7,97,30.38,10.0,Calm,Calm,-,N/A,,Clear,0,2013-01-05 07:55:00
2:15 AM,27.0,26.2,97,30.38,10.0,Calm,Calm,-,N/A,,Clear,0,2013-01-05 08:15:00
2:35 AM,26.8,26.2,98,30.38,10.0,Calm,Calm,-,N/A,,Clear,0,2013-01-05 08:35:00
2:55 AM,26.2,25.7,98,30.39,10.0,SW,3.5,-,N/A,,Clear,220,2013-01-05 08:55:00
3:15 AM,25.5,25.2,99,30.38,10.0,Calm,Calm,-,N/A,,Clear,0,2013-01-05 09:15:00
3:35 AM,25.2,24.4,97,30.39,10.0,Calm,Calm,-,N/A,,Clear,0,2013-01-05 09:35:00
3:55 AM,25.5,25.0,98,30.38,10.0,South,4.6,-,N/A,,Clear,180,2013-01-05 09:55:00
4:15 AM,24.8,24.3,98,30.38,10.0,South,4.6,-,N/A,,Clear,170,2013-01-05 10:15:00
4:35 AM,26.2,25.3,96,30.38,10.0,South,4.6,-,N/A,,Clear,180,2013-01-05 10:35:00
4:55 AM,27.0,26.2,97,30.37,10.0,South,5.8,-,N/A,,Clear,180,2013-01-05 10:55:00
5:15 AM,27.5,26.2,95,30.37,10.0,South,4.6,-,N/A,,Clear,190,2013-01-05 11:15:00
5:55 AM,27.9,26.4,94,30.38,10.0,SSW,3.5,-,N/A,,Clear,200,2013-01-05 11:55:00
6:15 AM,26.2,25.3,96,30.38,10.0,SSW,3.5,-,N/A,,Clear,210,2013-01-05 12:15:00
6:35 AM,27.5,26.4,96,30.39,10.0,SSW,3.5,-,N/A,,Clear,210,2013-01-05 12:35:00
6:55 AM,26.4,25.9,98,30.39,10.0,Calm,Calm,-,N/A,,Mostly Cloudy,0,2013-01-05 12:55:00
7:15 AM,27.9,26.8,96,30.38,10.0,South,3.5,-,N/A,,Overcast,180,2013-01-05 13:15:00
7:35 AM,28.4,27.3,96,30.40,10.0,Calm,Calm,-,N/A,,Overcast,0,2013-01-05 13:35:00
7:55 AM,29.7,28.4,95,30.39,10.0,Calm,Calm,-,N/A,,Overcast,0,2013-01-05 13:55:00
8:15 AM,31.6,30.0,94,30.39,10.0,South,4.6,-,N/A,,Mostly Cloudy,190,2013-01-05 14:15:00
8:35 AM,32.5,30.9,94,30.37,10.0,South,4.6,-,N/A,,Overcast,180,2013-01-05 14:35:00
8:55 AM,34.9,31.8,89,30.38,10.0,SSW,6.9,-,N/A,,Overcast,200,2013-01-05 14:55:00
9:15 AM,36.5,33.1,87,30.40,10.0,SW,9.2,-,N/A,,Scattered Clouds,230,2013-01-05 15:15:00
9:55 AM,40.3,32.9,75,30.39,10.0,SSW,8.1,-,N/A,,Clear,210,2013-01-05 15:55:00
10:15 AM,42.1,33.3,71,30.38,10.0,South,8.1,-,N/A,,Scattered Clouds,190,2013-01-05 16:15:00
10:55 AM,43.5,32.7,66,30.36,10.0,SW,6.9,-,N/A,,Overcast,220,2013-01-05 16:55:00
11:15 AM,43.5,32.7,66,30.34,10.0,WSW,12.7,-,N/A,,Overcast,240,2013-01-05 17:15:00
11:35 AM,43.3,33.3,68,30.33,10.0,WSW,9.2,-,N/A,,Overcast,250,2013-01-05 17:35:00
11:55 AM,43.9,33.3,66,30.31,10.0,WSW,9.2,-,N/A,,Overcast,250,2013-01-05 17:55:00
12:15 PM,43.9,32.7,65,30.31,10.0,WSW,9.2,-,N/A,,Overcast,240,2013-01-05 18:15:00
12:35 PM,43.7,32.7,65,30.30,10.0,WSW,9.2,-,N/A,,Overcast,250,2013-01-05 18:35:00
12:55 PM,44.1,32.7,64,30.29,10.0,WSW,9.2,-,N/A,,Overcast,250,2013-01-05 18:55:00
1:15 PM,44.2,31.8,62,30.28,10.0,WSW,12.7,-,N/A,,Overcast,250,2013-01-05 19:15:00
1:35 PM,43.7,32.0,63,30.28,10.0,West,8.1,-,N/A,,Overcast,260,2013-01-05 19:35:00
1:55 PM,43.7,32.2,64,30.27,10.0,WSW,5.8,-,N/A,,Overcast,250,2013-01-05 19:55:00
2:15 PM,44.1,32.0,63,30.26,10.0,West,6.9,-,N/A,,Overcast,260,2013-01-05 20:15:00
2:35 PM,44.1,32.0,63,30.26,10.0,WSW,4.6,-,N/A,,Overcast,240,2013-01-05 20:35:00
2:55 PM,43.9,30.9,60,30.26,10.0,WSW,6.9,-,N/A,,Overcast,250,2013-01-05 20:55:00
3:15 PM,44.1,31.6,62,30.26,10.0,SW,5.8,-,N/A,,Overcast,220,2013-01-05 21:15:00
3:35 PM,43.7,31.5,62,30.25,10.0,SW,5.8,-,N/A,,Overcast,220,2013-01-05 21:35:00
3:55 PM,43.7,32.0,63,30.25,10.0,SW,6.9,-,N/A,,Overcast,220,2013-01-05 21:55:00
4:15 PM,43.7,32.0,63,30.25,10.0,SW,4.6,-,N/A,,Overcast,220,2013-01-05 22:15:00
4:55 PM,43.0,32.7,67,30.24,10.0,South,4.6,-,N/A,,Overcast,190,2013-01-05 22:55:00
5:15 PM,42.8,32.9,68,30.24,10.0,SSW,5.8,-,N/A,,Overcast,210,2013-01-05 23:15:00
5:35 PM,42.6,32.7,68,30.25,10.0,SW,4.6,-,N/A,,Overcast,220,2013-01-05 23:35:00
5:55 PM,42.8,32.0,66,30.25,10.0,SSW,5.8,-,N/A,,Overcast,210,2013-01-05 23:55:00
6:15 PM,42.4,32.0,67,30.25,10.0,SSW,3.5,-,N/A,,Overcast,210,2013-01-06 00:15:00
6:35 PM,41.2,32.7,72,30.26,10.0,Calm,Calm,-,N/A,,Overcast,0,2013-01-06 00:35:00
6:55 PM,41.0,32.2,71,30.25,10.0,SSW,3.5,-,N/A,,Overcast,210,2013-01-06 00:55:00
7:15 PM,41.0,32.0,70,30.25,10.0,SSW,3.5,-,N/A,,Overcast,200,2013-01-06 01:15:00
7:35 PM,41.0,32.0,70,30.25,10.0,SSW,3.5,-,N/A,,Overcast,210,2013-01-06 01:35:00
7:55 PM,40.8,32.2,71,30.25,10.0,Calm,Calm,-,N/A,,Overcast,0,2013-01-06 01:55:00
8:15 PM,39.7,32.7,76,30.25,10.0,SW,4.6,-,N/A,,Overcast,220,2013-01-06 02:15:00
8:35 PM,40.1,32.0,73,30.24,10.0,SSW,4.6,-,N/A,,Overcast,210,2013-01-06 02:35:00
8:55 PM,38.8,31.1,74,30.24,10.0,SSW,4.6,-,N/A,,Scattered Clouds,200,2013-01-06 02:55:00
9:15 PM,37.9,30.9,76,30.23,10.0,SSW,4.6,-,N/A,,Clear,200,2013-01-06 03:15:00
9:35 PM,38.1,30.9,75,30.23,10.0,SSW,3.5,-,N/A,,Clear,210,2013-01-06 03:35:00
9:55 PM,37.9,30.9,76,30.24,10.0,SW,3.5,-,N/A,,Clear,230,2013-01-06 03:55:00
10:15 PM,36.7,30.6,78,30.23,10.0,SSW,3.5,-,N/A,,Clear,210,2013-01-06 04:15:00
10:35 PM,36.5,30.7,80,30.23,10.0,South,3.5,-,N/A,,Clear,190,2013-01-06 04:35:00
10:55 PM,36.5,30.7,80,30.22,10.0,South,3.5,-,N/A,,Clear,190,2013-01-06 04:55:00
11:15 PM,35.8,30.7,82,30.22,10.0,South,4.6,-,N/A,,Scattered Clouds,190,2013-01-06 05:15:00
11:35 PM,34.9,30.4,84,30.22,10.0,SSW,4.6,-,N/A,,Scattered Clouds,200,2013-01-06 05:35:00
11:55 PM,35.2,30.2,82,30.21,10.0,SSW,5.8,-,N/A,,Clear,210,2013-01-06 05:55:00